Wind_Speed
27 17 20 24 23 20 17 14 19 14 17 19 22 25 23 28 30 38 35 31 32 35 29 31 30 27 24 19 15 14 13 16 16 17 16 16 19 18 18 18 19 23 19 21
15 23 23 21 20 20 19 16 14 14 13 18 21 24 23 24 27 39 29 28 33 32 34 30 36 31 23 19 18 17 19 11 14 15 17 16 16 17 17 17 19 24 19 18
20 19 22 18 17 19 19 19 15 16 11 14 17 23 20 22 30 38 36 35 42 33 35 31 41 42 33 24 11 9 20 28 19 13 14 13 13 15 15 16 16 19 20 19
23 21 20 21 22 20 20 18 16 17 16 14 6 13 21 24 24 26 32 34 28 28 29 35 40 45 34 17 19 28 19 21 27 22 22 20 15 13 13 14 15 15 14 14
22 21 19 21 21 20 18 17 19 16 17 18 7 6 22 12 23 25 19 27 29 25 19 33 38 31 18 11 13 26 33 30 32 37 25 19 17 13 11 12 17 20 17 15
22 22 21 17 20 20 20 17 15 15 15 15 21 7 9 7 13 18 21 19 4 13 8 23 19 22 16 15 20 26 23 22 24 27 22 16 15 13 13 13 11 9 11 12
21 23 18 18 18 23 19 16 12 13 14 15 19 15 8 5 11 18 17 9 5 5 7 7 14 14 16 16 20 17 15 14 15 14 13 14 19 21 16 10 8 11 12 12
20 21 21 17 23 20 20 20 15 20 13 15 17 12 10 18 16 15 15 14 12 12 13 15 16 20 19 18 17 16 14 10 10 11 10 15 12 7 6 8 11 9 10 12
16 21 23 19 17 20 18 20 23 18 12 7 9 14 11 14 16 16 19 18 16 16 16 17 16 18 17 17 17 17 13 13 9 8 6 5 8 9 11 13 15 14 15 17
14 12 16 23 18 19 17 15 13 12 9 11 7 7 5 21 19 18 16 19 18 18 18 17 17 17 16 15 15 13 11 9 6 5 4 2 3 7 12 16 19 21 24 26
17 13 17 14 21 21 18 11 11 16 8 11 6 5 8 12 20 19 18 20 19 17 16 16 15 15 14 13 11 9 8 7 6 5 4 6 10 14 16 20 22 25 28 29
24 9 12 19 17 21 18 11 13 10 7 10 10 4 10 18 18 18 21 20 18 17 16 15 13 12 10 10 9 8 8 8 9 10 11 14 16 19 21 24 26 27 29 29
21 8 10 6 9 9 14 12 8 4 5 10 7 3 8 15 14 16 19 18 16 15 14 12 10 9 8 7 7 7 8 8 10 12 12 13 16 18 20 23 24 25 26 26
15 13 17 9 6 16 19 17 13 8 4 10 4 1 11 7 9 13 15 13 13 11 8 7 6 6 7 8 9 10 11 12 14 15 16 17 18 20 21 22 24 25 24 25
15 12 10 9 4 4 11 16 11 14 12 10 5 14 17 14 6 7 12 7 7 6 3 5 5 6 8 9 10 11 12 14 16 17 18 19 20 21 22 22 23 24 26 27
8 10 13 8 8 10 9 12 17 15 13 13 8 9 12 4 15 6 6 3 2 4 3 5 7 9 10 12 13 14 16 17 17 18 20 20 21 20 21 22 23 24 26 28
15 11 11 10 11 8 4 9 10 6 4 4 7 3 13 11 3 5 1 2 2 6 4 7 9 10 11 13 14 16 17 17 17 18 18 18 19 19 20 21 23 24 27 28
9 14 8 8 11 9 8 3 3 10 6 4 7 4 4 6 7 7 9 10 5 6 8 10 10 11 12 14 15 16 16 17 16 17 16 16 17 19 20 21 23 26 27 27
13 10 6 7 9 12 8 5 6 12 10 6 9 8 8 7 12 10 7 5 6 8 10 11 12 14 16 15 15 16 17 16 16 15 14 15 16 18 20 23 25 26 25 25
11 8 4 9 8 5 13 7 11 14 8 10 10 8 6 6 7 3 6 7 8 10 11 12 14 15 15 14 16 16 16 15 13 13 15 14 17 19 20 21 21 22 23 25
8 8 6 8 4 7 9 7 3 11 5 11 14 10 7 8 7 5 8 9 10 11 13 14 14 14 14 15 14 14 13 12 13 13 14 16 17 18 18 21 24 25 27 28
6 4 4 6 4 4 9 8 1 10 14 13 12 8 7 7 7 8 10 11 12 14 15 14 15 14 14 13 12 13 13 10 12 14 16 17 17 17 20 21 24 25 27 27
5 4 3 2 5 14 20 21 19 16 14 11 10 9 9 9 10 11 12 12 13 13 14 14 14 14 13 13 12 12 10 12 14 14 16 17 17 17 16 20 27 27 21 23
6 4 6 9 12 14 21 21 18 15 14 12 12 11 12 12 14 14 13 13 13 13 13 14 14 13 14 13 11 11 12 13 14 15 15 17 14 17 16 20 23 24 22 24
3 7 8 14 14 18 17 17 16 16 14 13 12 12 11 12 14 16 14 13 13 13 14 14 14 14 15 13 11 12 12 13 13 14 15 16 13 13 16 23 24 22 18 19
5 6 4 6 19 11 17 16 15 15 14 13 11 11 10 12 14 14 16 14 15 16 16 14 14 15 14 13 12 13 13 12 12 13 14 14 14 13 16 22 23 19 19 18
Wind_Direction
198 207 209 210 217 233 266 241 240 242 251 241 246 239 249 239 238 244 241 230 231 236 215 212 198 206 274 296 303 322 279 230 223 221 225 227 229 231 233 231 230 232 216 226
181 216 216 226 209 228 242 251 255 259 252 246 247 246 243 246 236 242 233 239 242 235 241 212 209 230 248 262 301 288 306 266 219 227 226 230 236 235 235 231 228 237 223 218
207 213 225 210 217 216 224 238 244 260 260 270 257 263 238 233 240 237 225 230 241 232 238 222 207 211 237 259 275 255 266 269 268 243 232 231 222 227 221 223 226 227 221 219
221 226 195 215 218 214 219 220 247 262 271 266 292 278 226 230 229 229 230 226 229 233 239 227 203 202 221 234 225 272 283 246 256 255 253 234 208 218 226 222 224 228 225 219
210 225 206 211 214 217 230 224 219 233 254 268 240 232 281 252 218 218 208 219 221 231 243 217 206 195 195 208 210 244 267 257 239 231 226 239 223 227 223 218 220 214 225 211
226 206 228 215 214 220 219 237 249 232 237 248 255 183 249 252 297 217 194 203 225 249 190 166 170 182 175 181 211 238 232 229 218 226 207 216 234 218 210 204 216 219 227 243
205 224 211 210 209 208 216 222 224 227 231 238 252 197 146 127 312 240 116 122 145 159 154 175 171 167 182 187 194 201 198 190 184 176 178 191 193 190 189 181 217 229 234 241
199 208 200 198 216 210 208 215 225 215 220 228 213 261 143 166 215 111 107 114 118 113 116 114 120 129 134 142 156 162 159 157 156 160 162 186 173 173 177 211 208 222 239 250
214 215 195 207 219 228 205 217 234 255 304 252 267 152 152 146 146 133 127 121 117 113 113 109 107 111 122 127 126 130 132 133 133 136 129 174 196 213 225 234 250 263 261 263
213 237 200 196 201 230 240 245 247 242 199 276 225 312 166 163 154 138 134 125 123 121 117 115 114 114 115 110 108 114 119 113 107 109 136 259 285 276 280 285 285 285 283 283
211 228 209 184 205 215 223 182 253 265 290 252 149 232 256 266 149 146 135 133 134 129 121 113 107 102 101 100 93 85 79 68 48 27 332 305 299 294 293 292 291 289 288 288
199 233 184 205 197 219 253 276 192 234 252 278 292 140 141 299 135 131 132 133 130 125 121 115 109 101 93 85 77 42 33 26 8 354 339 323 311 306 298 294 292 291 290 289
189 205 174 207 289 215 219 220 266 48 333 195 258 75 158 189 119 130 123 126 132 125 115 110 103 90 79 58 43 28 12 5 348 337 327 320 311 308 305 300 299 295 290 288
195 212 196 206 186 196 205 207 206 151 86 260 208 61 325 24 115 123 130 140 136 122 109 91 77 64 33 19 3 358 351 347 335 326 322 317 314 308 306 303 299 298 295 288
167 205 183 129 203 136 266 201 212 231 229 244 300 189 206 201 193 195 134 153 138 134 90 56 31 14 360 351 344 342 334 332 326 321 317 312 311 310 308 302 295 291 290 289
166 202 206 171 152 107 271 203 181 215 202 217 137 129 147 186 199 159 160 153 202 157 63 2 351 345 339 337 334 328 326 322 318 315 311 311 308 305 296 296 298 294 291 285
196 150 158 182 198 194 229 181 191 195 229 236 228 12 133 138 193 170 173 95 355 49 358 333 330 329 327 325 321 317 312 313 313 309 306 303 301 299 299 299 297 295 290 293
181 160 159 152 151 196 70 37 339 172 138 206 87 65 81 108 85 70 59 68 49 341 328 324 323 319 315 311 311 309 309 309 308 306 303 303 307 305 302 303 300 299 299 299
143 137 171 151 171 102 129 129 159 156 113 44 102 111 115 118 121 102 79 30 347 331 325 322 318 315 313 313 309 307 310 309 307 307 308 310 306 308 310 305 303 303 304 300
126 139 144 148 179 158 107 87 56 114 115 121 97 75 39 267 163 79 352 340 331 327 323 319 313 314 311 308 308 309 308 309 305 301 297 309 311 306 305 303 305 303 300 299
131 110 176 131 172 97 102 109 188 213 137 79 90 73 56 51 79 349 338 333 330 327 324 320 318 314 309 312 311 307 303 297 291 300 311 301 301 302 306 315 326 312 307 313
127 129 170 147 137 111 143 143 22 124 115 100 84 65 63 44 25 358 344 336 332 329 328 325 322 316 317 318 311 302 297 300 320 307 305 308 311 310 327 322 314 318 306 297
130 125 162 80 88 80 86 102 100 102 102 90 85 64 50 44 21 4 349 342 338 335 331 329 324 321 318 312 309 309 320 322 307 315 314 315 318 325 320 316 314 329 319 312
102 112 122 104 104 101 101 102 105 103 99 90 78 63 47 37 19 8 358 349 345 343 341 335 329 323 321 321 321 317 310 311 313 314 316 324 335 339 321 321 331 335 330 326
118 131 89 95 120 109 103 107 110 104 97 89 79 66 50 36 26 17 8 2 354 348 344 343 339 335 332 336 335 329 322 318 314 312 322 331 331 321 325 338 360 355 346 336
16 134 150 160 167 124 129 120 115 106 96 84 78 65 49 37 30 26 21 11 4 355 348 349 348 342 346 346 343 328 325 318 314 317 323 326 329 322 329 340 3 17 12 7
Height
1445 1444 1437 1430 1429 1427 1423 1425 1426 1424 1421 1425 1425 1426 1429 1431 1435 1433 1430 1433 1437 1442 1449 1458 1466 1475 1477 1475 1477 1477 1479 1483 1486 1489 1492 1493 1495 1497 1499 1501 1502 1503 1504 1505
1436 1431 1420 1422 1424 1429 1428 1428 1427 1421 1417 1420 1421 1421 1420 1423 1423 1424 1425 1430 1433 1437 1441 1449 1460 1471 1472 1473 1475 1476 1477 1481 1482 1487 1489 1491 1493 1494 1495 1496 1497 1499 1499 1502
1416 1414 1418 1418 1421 1427 1426 1427 1427 1425 1415 1415 1414 1414 1410 1412 1415 1416 1419 1426 1429 1431 1434 1438 1444 1455 1464 1469 1471 1476 1479 1478 1479 1483 1486 1488 1489 1491 1491 1494 1495 1496 1496 1498
1410 1407 1410 1415 1419 1420 1425 1421 1424 1423 1423 1424 1413 1421 1402 1402 1403 1405 1410 1415 1420 1426 1428 1432 1438 1450 1462 1463 1472 1476 1475 1478 1479 1481 1482 1483 1487 1489 1489 1491 1492 1493 1493 1495
1403 1404 1405 1411 1413 1414 1418 1413 1416 1420 1422 1420 1413 1430 1409 1399 1398 1397 1402 1410 1416 1420 1419 1423 1433 1445 1452 1458 1464 1473 1473 1477 1478 1479 1481 1482 1484 1486 1486 1487 1487 1489 1490 1492
1395 1398 1399 1401 1406 1409 1411 1413 1413 1413 1414 1426 1408 1428 1424 1415 1409 1391 1397 1405 1412 1416 1417 1423 1435 1440 1446 1455 1463 1471 1471 1470 1471 1474 1477 1479 1481 1481 1483 1484 1485 1487 1490 1489
1395 1389 1393 1396 1401 1404 1408 1413 1425 1432 1420 1420 1396 1412 1405 1422 1424 1391 1393 1411 1420 1423 1425 1429 1434 1439 1441 1450 1461 1465 1469 1471 1471 1471 1471 1473 1474 1475 1477 1479 1484 1486 1487 1488
1391 1400 1387 1390 1395 1396 1399 1402 1409 1425 1415 1402 1388 1410 1397 1404 1409 1407 1410 1418 1423 1427 1430 1434 1439 1441 1446 1451 1459 1464 1465 1466 1470 1470 1469 1467 1471 1476 1477 1476 1477 1481 1482 1484
1383 1383 1379 1386 1389 1388 1394 1399 1387 1397 1409 1410 1399 1392 1399 1400 1408 1411 1416 1423 1429 1433 1434 1436 1441 1443 1451 1454 1456 1459 1463 1466 1468 1466 1467 1468 1468 1470 1470 1472 1474 1474 1474 1476
1378 1390 1375 1382 1388 1389 1389 1393 1404 1392 1427 1429 1408 1410 1386 1395 1402 1410 1418 1423 1431 1436 1439 1443 1446 1449 1452 1454 1457 1461 1464 1465 1464 1464 1464 1465 1466 1466 1466 1467 1468 1468 1467 1466
1382 1388 1386 1379 1385 1390 1389 1399 1404 1393 1387 1403 1420 1419 1409 1398 1391 1404 1414 1425 1431 1437 1441 1445 1447 1449 1451 1453 1457 1461 1462 1462 1463 1461 1463 1462 1463 1463 1460 1462 1462 1461 1460 1459
1373 1378 1391 1383 1379 1383 1379 1385 1403 1406 1417 1400 1396 1396 1404 1415 1392 1404 1414 1425 1433 1438 1442 1446 1450 1452 1455 1456 1457 1459 1460 1460 1461 1460 1459 1457 1458 1457 1456 1456 1457 1455 1453 1450
1366 1374 1399 1403 1413 1389 1388 1389 1390 1402 1405 1422 1425 1413 1399 1405 1404 1412 1420 1429 1437 1441 1444 1448 1451 1454 1456 1458 1458 1460 1461 1459 1460 1460 1460 1457 1456 1454 1452 1450 1448 1447 1448 1444
1362 1370 1381 1389 1384 1384 1391 1387 1391 1404 1435 1429 1430 1433 1420 1411 1413 1418 1426 1432 1437 1441 1445 1450 1452 1454 1456 1456 1458 1457 1456 1455 1456 1456 1454 1453 1450 1449 1447 1445 1444 1442 1440 1439
1366 1377 1373 1398 1387 1390 1392 1387 1394 1398 1402 1415 1407 1416 1423 1420 1426 1431 1429 1433 1438 1441 1445 1450 1453 1454 1455 1456 1457 1455 1455 1454 1455 1452 1450 1449 1446 1443 1441 1441 1440 1439 1433 1429
1368 1378 1377 1392 1389 1395 1412 1390 1391 1395 1397 1397 1400 1410 1415 1425 1425 1430 1433 1435 1439 1443 1448 1451 1453 1453 1454 1454 1453 1452 1452 1450 1450 1446 1446 1443 1443 1441 1441 1436 1432 1429 1427 1425
1366 1367 1382 1393 1389 1390 1398 1390 1390 1392 1397 1399 1406 1405 1406 1418 1424 1428 1433 1438 1443 1448 1452 1454 1454 1454 1453 1453 1452 1451 1450 1447 1445 1444 1443 1443 1441 1437 1433 1430 1427 1424 1425 1418
1367 1371 1373 1391 1389 1405 1398 1392 1389 1394 1401 1408 1411 1418 1419 1422 1431 1436 1440 1446 1450 1453 1455 1455 1454 1454 1454 1452 1451 1448 1447 1445 1443 1441 1440 1437 1435 1433 1430 1426 1423 1419 1416 1410
1364 1375 1385 1393 1390 1398 1401 1399 1398 1398 1414 1415 1418 1424 1428 1433 1440 1447 1452 1454 1456 1456 1456 1455 1454 1453 1451 1449 1448 1446 1443 1441 1439 1436 1435 1432 1433 1429 1423 1421 1418 1414 1410 1406
1372 1373 1383 1381 1394 1400 1397 1405 1405 1407 1429 1427 1431 1436 1438 1436 1442 1454 1455 1456 1456 1456 1456 1455 1453 1451 1449 1447 1443 1440 1438 1435 1434 1434 1432 1430 1428 1425 1422 1419 1416 1410 1406 1401
1380 1386 1391 1386 1395 1406 1409 1413 1415 1418 1445 1435 1438 1442 1444 1444 1453 1455 1455 1456 1456 1455 1454 1452 1450 1448 1446 1443 1440 1438 1436 1435 1432 1429 1428 1427 1425 1422 1418 1412 1407 1403 1399 1394
1386 1397 1392 1393 1404 1419 1414 1416 1422 1436 1438 1441 1445 1450 1451 1453 1454 1455 1456 1456 1455 1453 1451 1449 1447 1444 1442 1440 1437 1434 1432 1429 1428 1427 1425 1422 1420 1416 1411 1407 1405 1400 1395 1388
1398 1396 1402 1402 1416 1418 1422 1427 1434 1437 1442 1446 1450 1454 1455 1456 1457 1457 1457 1456 1455 1452 1449 1447 1444 1442 1440 1436 1432 1429 1427 1427 1426 1423 1420 1418 1414 1410 1408 1406 1402 1395 1391 1386
1398 1400 1408 1411 1425 1427 1430 1434 1438 1443 1447 1451 1453 1455 1457 1458 1458 1457 1456 1455 1453 1451 1448 1445 1442 1439 1435 1432 1429 1427 1425 1423 1422 1419 1416 1413 1410 1408 1407 1403 1398 1391 1386 1380
1400 1402 1417 1426 1428 1431 1435 1439 1444 1447 1451 1453 1456 1458 1460 1460 1460 1459 1457 1454 1451 1448 1445 1442 1439 1435 1432 1429 1426 1425 1423 1421 1417 1415 1412 1409 1409 1407 1405 1400 1394 1389 1385 1379
1404 1407 1409 1417 1425 1426 1438 1444 1447 1450 1454 1456 1457 1460 1462 1461 1460 1459 1456 1453 1449 1446 1443 1440 1438 1434 1430 1426 1425 1422 1418 1416 1413 1411 1409 1407 1405 1405 1402 1398 1391 1388 1383 1379